Home > Weather > Erftstadt > Past weeks

Flag for Germany Past Weather in Erftstadt, North Rhine-Westphalia, Germany — Yesterday and Last 2 Weeks

Now
63 °F

Passing clouds.


Feels Like: 63 °F
Forecast: 53 / 75 °F
Wind: 5 mph from West

Location: Noervenich

Current Time: Aug 29, 2016 at 11:48:34 PM

Latest Report: Aug 29, 2016 at 10:20 PM


Visibility: N/A

Pressure: 30.21 "Hg

Humidity: 88%

Dew Point: 59 °F

Location of ErftstadtLocation

Past Weather in Erftstadt — Graph

°F

Erftstadt Temperature Yesterday

Maximum temperature yesterday: 90 °F (at 11:20 AM)
Minimum temperature yesterday: 66 °F (at 7:20 AM)
Average temperature yesterday: 78 °F

High & Low Weather Summary for the Past Weeks

 TemperatureHumidityPressure
High91 °F (Aug 25, 3:20 PM)100% (Aug 17, 6:20 AM)30.33 "Hg (Aug 17, 6:20 AM)
Low50 °F (Aug 16, 6:20 AM)32% (Aug 25, 5:20 PM)29.77 "Hg (Aug 18, 4:20 PM)
Average70 °F67%30.04 "Hg
* Reported Aug 14 10:20 PM — Aug 29 10:20 PM, Erftstadt, Weather by CustomWeather, © 2016

Note: Actual official high and low records may vary slightly from our data, if they occured in-between our weather recording intervals... More about our weather records

Advertising

Erftstadt Weather History for the Previous 24 Hours

Scroll right to see more
 ConditionsComfort  
Time TempWeatherWind HumidityBarometerVisibility
10:20 PM
Mon, Aug 29
63 °FPassing clouds.5 mph88%30.21 "HgN/A
9:20 PM64 °FBroken clouds.5 mph83%30.21 "HgN/A
8:20 PM64 °FBroken clouds.No wind88%30.18 "HgN/A
7:20 PM66 °FBroken clouds.2 mph78%30.15 "HgN/A
6:20 PM68 °FPartly sunny.8 mph73%30.15 "HgN/A
5:20 PM68 °FBroken clouds.9 mph73%30.15 "HgN/A
4:20 PM68 °FBroken clouds.7 mph73%30.15 "HgN/A
3:20 PM68 °FPartly sunny.7 mph73%30.12 "HgN/A
2:20 PM66 °FPartly sunny.6 mph83%30.12 "HgN/A
1:20 PM64 °FSprinkles. Partly sunny.8 mph88%30.12 "HgN/A
12:20 PM68 °FBroken clouds.12 mph69%30.09 "HgN/A
11:20 AM66 °FBroken clouds.12 mph73%30.09 "HgN/A
10:20 AM68 °FPartly sunny.8 mph69%30.09 "HgN/A
9:20 AM66 °FPartly sunny.9 mph73%30.07 "HgN/A
8:20 AM64 °FPartly sunny.10 mph73%30.07 "HgN/A
7:20 AM64 °FPassing clouds.2 mph73%30.07 "HgN/A
6:20 AM64 °FPassing clouds.No wind73%30.04 "HgN/A
5:20 AM63 °FPassing clouds.5 mph77%30.04 "HgN/A
4:20 AM64 °FPassing clouds.3 mph73%30.04 "HgN/A
3:20 AM63 °FPassing clouds.3 mph77%30.04 "HgN/A
2:20 AM63 °FPassing clouds.2 mph77%30.04 "HgN/A
1:20 AM64 °FPassing clouds.2 mph73%30.04 "HgN/A
12:20 AM64 °FPassing clouds.5 mph73%30.04 "HgN/A
11:20 PM
Sun, Aug 28
68 °FPassing clouds.7 mph64%30.04 "HgN/A
Weather by CustomWeather, © 2016

See weather overviewHow to use our weather pages